• Join FlightAware (Why Join?)
  • Login
  • US Flag GB Flag 
10:34 EDT


 

Airport Tracker/Info


-or-


 

Live Flight TrackerFlight Track Log ✈ N400PU ✈ 03-Dec-2012 ✈ KLAF - KCAK

Flight Track Log - Related Links

Times and Time Zones

All times are in EST time to prevent confusion due to time zone crossing. See the N400PU flight status page for this flight to view local times or setup timezone preferences in your user account.

Time Position Orientation Groundspeed Altitude Reporting Facility
EST Latitude Longitude Course Direction KTS MPH feet Rate Location/Type
13:04 40.5119 -86.8728 81° East 315 362 11,300  Level Chicago Center
13:05 40.5242 -86.7686 81° East 292 336 13,900 2,100 Climbing Chicago Center
13:06 40.5361 -86.6506 82° East 308 354 15,600 1,740 Climbing Chicago Center
13:07 40.5625 -86.5294 74° East 333 383 17,400 1,920 Climbing Chicago Center
13:08 40.6036 -86.4264 62° Northeast 343 395 19,500 2,220 Climbing Chicago Center
13:09 40.5231 -85.9439 81° East  Level Estimated
13:09 40.6550 -86.3175 58° Northeast 349 402 21,900  Level Chicago Center
13:10 40.7022 -86.2139 59° Northeast 344 396 24,200 1,500 Climbing Chicago Center
13:11 40.7533 -86.1017 59° Northeast 344 396 25,000 360 Climbing Chicago Center
13:12 40.7656 -85.9558 84° East 411 473 25,000  Level Chicago Center
13:13 40.7706 -85.7772 88° East 432 497 25,000  Level Chicago Center
13:14 40.7778 -85.6097 87° East 444 511 25,000  Level Chicago Center
13:16 40.7925 -85.3003 86° East 468 539 25,000  Level Indianapolis Center
13:17 40.7992 -85.1250 87° East 468 539 25,000  Level Indianapolis Center
13:19 40.8108 -84.7892 87° East 493 567 25,000  Level Cleveland Center
13:20 40.8175 -84.6083 87° East 488 562 25,000 -60 Level Cleveland Center
13:21 40.8211 -84.4383 88° East 481 554 24,900 -840 Descending Cleveland Center
13:22 40.8228 -84.2656 89° East 476 548 23,400 -1,800 Descending Cleveland Center
13:23 40.8217 -84.0981 90° East 465 535 21,300 -2,340 Descending Cleveland Center
13:24 40.8203 -83.9389 91° East 452 520 18,800 -2,400 Descending Cleveland Center
13:25 40.8186 -83.7825 91° East 432 497 16,500 -1,920 Descending Cleveland Center
13:26 40.8164 -83.6342 91° East 414 476 15,000 -840 Descending Cleveland Center
13:27 40.8139 -83.4914 91° East 395 455 14,900 -60 Descending Cleveland Center
13:28 40.8133 -83.3486 90° East 390 449 14,900  Level Cleveland Center
13:29 40.8108 -83.1894 91° East 390 449 14,900  Level Cleveland Center
13:30 40.8078 -83.0383 91° East 395 455 14,900  Level Cleveland Center
13:31 40.8047 -82.8900 92° East 400 460 14,900  Level Cleveland Center
13:32 40.8011 -82.7556 92° East 407 468 14,900  Level Cleveland Center
13:33 40.7997 -82.6047 91° East 407 468 14,900 -540 Level Cleveland Center
13:34 40.7936 -82.4644 93° East 397 457 13,900 -1,140 Descending Cleveland Center
13:35 40.7917 -82.3328 91° East 372 428 12,700 -1,440 Descending Cleveland Center
13:36 40.7892 -82.2175 92° East 333 383 11,100 -1,560 Descending Cleveland Center
13:37 40.7867 -82.1050 92° East 315 362 9,600 -1,080 Descending Cleveland Center
13:38 40.7839 -81.9925 92° East 309 356 9,000 -840 Descending Cleveland Center
13:39 40.7831 -81.8828 91° East 304 350 8,000 -1,500 Descending Cleveland Center
13:40 40.7800 -81.7731 92° East 304 350 6,100 -1,500 Descending Cleveland Center
13:41 40.8228 -81.6861 57° Northeast 257 296 5,000 -600 Descending Cleveland Center
13:42 40.8817 -81.6239 39° Northeast 252 290 5,000  Level Cleveland Center
13:43 40.9386 -81.5561 42° Northeast 263 303 5,000 -300 Level Cleveland Center
13:44 41.0075 -81.5186 22° Northeast 270 311 4,500 -540 Descending Cleveland Center
13:46 40.9151 -81.4436 57° Northeast  Level Estimated
13:53 40.9151 -81.4436 57° Northeast  Level Estimated
13:54 40.9151 -81.4436 57° Northeast  Level Estimated